YLRE

Details ICAO YLRE (LRE)
Name Longreach
Region Australia
Timezone Australia/Brisbane (UTC+10.0)
Plans Departing 13
Arriving 31
Stats Elevation 627 ft / 191 m (AMSL)
Location -23.434892° 144.276806°
Runways 2
Magnetic Variation 7.489° E
Sunrise 2018-05-20 20:53:27 UTC / 2018-05-21 06:53:27 Local
Sunset 2018-05-21 07:48:18 UTC / 2018-05-21 17:48:18 Local
Advertisement - Login to hide

Runways

ID Width Length Bearing (true) Bearing (mag) Surface Threshold Offset Overrun Length
04 82 ft / 25 m 6,351 ft / 1,936 m 46.40° 38.91° Asphalt 0 ft / 0 m 200 ft / 61 m
09 151 ft / 46 m 2,490 ft / 759 m 93.15° 85.66° Dirt 0 ft / 0 m 0 ft / 0 m
22 82 ft / 25 m 6,351 ft / 1,936 m 226.40° 218.91° Asphalt 0 ft / 0 m 210 ft / 64 m
27 151 ft / 46 m 2,490 ft / 759 m 273.14° 265.65° Dirt 0 ft / 0 m 0 ft / 0 m

Map

Weather


0- 5 10 15 20 25 30 35+ Temperature / ° C

Clouds and Precipitation
Forecast for 2018-05-21 06:00 UTC. Updated an hour ago

Ground ~20,000 ft ~40,000 ft Winds

METAR

YLRE 210400Z AUTO 16011KT 9999 // NCD 25/02 Q1020

TAF

Not found

Frequencies

Unicom 125.30 MHz ACTIVATE LIGHTS ONLY MULT
Unicom 126.70 MHz LONGREACH MULT
Unicom 122.10 MHz BRISBANE CENTRE MULT
Warning: Do not use this data for real-world aviation or navigation. No guarantee of current accuracy is given.